owner,sensor,date,latitude,longitude,vertical_datum,mass_concentration_of_oxygen_in_sea_water,qcFlag 
SCCF RECON,ioos:station:SCCF:13:1,2008-09-01T00:00:00Z,26.5255,-82.0032,2.56,4.34,1111122 
SCCF RECON,ioos:station:SCCF:13:1,2008-09-01T01:00:00Z,26.5255,-82.0032,2.5,4.6,1111122 
SCCF RECON,ioos:station:SCCF:13:1,2008-09-01T02:00:00Z,26.5255,-82.0032,2.49,4.86,1111122 
SCCF RECON,ioos:station:SCCF:13:1,2008-09-01T03:00:00Z,26.5255,-82.0032,2.58,4.76,1111122 
SCCF RECON,ioos:station:SCCF:13:1,2008-09-01T04:00:00Z,26.5255,-82.0032,2.68,4.31,1111122 
SCCF RECON,ioos:station:SCCF:13:1,2008-09-01T05:00:00Z,26.5255,-82.0032,2.72,4.09,1111122 
SCCF RECON,ioos:station:SCCF:13:1,2008-09-01T06:00:00Z,26.5255,-82.0032,2.72,3.86,1111122 
SCCF RECON,ioos:station:SCCF:13:1,2008-09-01T07:00:00Z,26.5255,-82.0032,2.673,3.67,1111122 
SCCF RECON,ioos:station:SCCF:13:1,2008-09-01T08:00:00Z,26.5255,-82.0032,2.584,3.58,1111122 
SCCF RECON,ioos:station:SCCF:13:1,2008-09-01T09:00:00Z,26.5255,-82.0032,2.47,3.78,1111122 
SCCF RECON,ioos:station:SCCF:13:1,2008-09-01T10:00:00Z,26.5255,-82.0032,2.37,4.76,1111122 
SCCF RECON,ioos:station:SCCF:13:1,2008-09-01T11:00:00Z,26.5255,-82.0032,2.29,4.89,1111122 
SCCF RECON,ioos:station:SCCF:13:1,2008-09-01T12:00:00Z,26.5255,-82.0032,2.22,5.13,1111122 
SCCF RECON,ioos:station:SCCF:13:1,2008-09-01T13:00:00Z,26.5255,-82.0032,2.16,5.02,1111122 
SCCF RECON,ioos:station:SCCF:13:1,2008-09-01T14:00:00Z,26.5255,-82.0032,2.16,4.92,1111122 
SCCF RECON,ioos:station:SCCF:13:1,2008-09-01T15:00:00Z,26.5255,-82.0032,2.312,4.91,1111122 
SCCF RECON,ioos:station:SCCF:13:1,2008-09-01T16:00:00Z,26.5255,-82.0032,2.465,4.76,1111122 
SCCF RECON,ioos:station:SCCF:13:1,2008-09-01T17:00:00Z,26.5255,-82.0032,2.54,4.48,1111122 
SCCF RECON,ioos:station:SCCF:13:1,2008-09-01T18:00:00Z,26.5255,-82.0032,2.61,4.12,1111122 
SCCF RECON,ioos:station:SCCF:13:1,2008-09-01T19:00:00Z,26.5255,-82.0032,2.679,4.51,1111122 
SCCF RECON,ioos:station:SCCF:13:1,2008-09-01T20:00:00Z,26.5255,-82.0032,2.69,4.66,1111122 
SCCF RECON,ioos:station:SCCF:13:1,2008-09-01T21:00:00Z,26.5255,-82.0032,2.66,4.57,1111122 
SCCF RECON,ioos:station:SCCF:13:1,2008-09-01T22:00:00Z,26.5255,-82.0032,2.551,4.37,1111122 
SCCF RECON,ioos:station:SCCF:13:1,2008-09-01T23:00:00Z,26.5255,-82.0032,2.442,4.37,1111122 
SCCF RECON,ioos:station:SCCF:13:1,2008-09-02T00:00:00Z,26.5255,-82.0032,2.36,4.83,1111122 
SCCF RECON,ioos:station:SCCF:13:1,2008-09-02T01:00:00Z,26.5255,-82.0032,2.3,4.91,1111122 
SCCF RECON,ioos:station:SCCF:13:1,2008-09-02T02:00:00Z,26.5255,-82.0032,2.28,4.91,1111122 
SCCF RECON,ioos:station:SCCF:13:1,2008-09-02T03:00:00Z,26.5255,-82.0032,2.32,4.88,1111122 
SCCF RECON,ioos:station:SCCF:13:1,2008-09-02T04:00:00Z,26.5255,-82.0032,2.45,4.73,1111122 
SCCF RECON,ioos:station:SCCF:13:1,2008-09-02T05:00:00Z,26.5255,-82.0032,2.56,3.94,1111122 
SCCF RECON,ioos:station:SCCF:13:1,2008-09-02T06:00:00Z,26.5255,-82.0032,2.59,3.87,1111122 
SCCF RECON,ioos:station:SCCF:13:1,2008-09-02T07:00:00Z,26.5255,-82.0032,2.61,4.1,1111122 
SCCF RECON,ioos:station:SCCF:13:1,2008-09-02T08:00:00Z,26.5255,-82.0032,2.593,3.85,1111122 
SCCF RECON,ioos:station:SCCF:13:1,2008-09-02T09:00:00Z,26.5255,-82.0032,2.49,3.8,1111122 
SCCF RECON,ioos:station:SCCF:13:1,2008-09-02T10:00:00Z,26.5255,-82.0032,2.37,3.88,1111122 
SCCF RECON,ioos:station:SCCF:13:1,2008-09-02T11:00:00Z,26.5255,-82.0032,2.275,4.83,1111122 
SCCF RECON,ioos:station:SCCF:13:1,2008-09-02T12:00:00Z,26.5255,-82.0032,2.2,4.76,1111122 
SCCF RECON,ioos:station:SCCF:13:1,2008-09-02T13:00:00Z,26.5255,-82.0032,2.11,4.9,1111122 
SCCF RECON,ioos:station:SCCF:13:1,2008-09-02T14:00:00Z,26.5255,-82.0032,2.04,5.0,1111122 
SCCF RECON,ioos:station:SCCF:13:1,2008-09-02T15:00:00Z,26.5255,-82.0032,2.06,4.99,1111122 
SCCF RECON,ioos:station:SCCF:13:1,2008-09-02T16:00:00Z,26.5255,-82.0032,2.199,4.95,1111122 
SCCF RECON,ioos:station:SCCF:13:1,2008-09-02T17:00:00Z,26.5255,-82.0032,2.322,4.77,1111122 
SCCF RECON,ioos:station:SCCF:13:1,2008-09-02T18:00:00Z,26.5255,-82.0032,2.39,4.72,1111122 
SCCF RECON,ioos:station:SCCF:13:1,2008-09-02T19:00:00Z,26.5255,-82.0032,2.43,4.31,1111122 
SCCF RECON,ioos:station:SCCF:13:1,2008-09-02T20:00:00Z,26.5255,-82.0032,2.46,4.15,1111122 
SCCF RECON,ioos:station:SCCF:13:1,2008-09-02T21:00:00Z,26.5255,-82.0032,2.48,4.67,1111122 
SCCF RECON,ioos:station:SCCF:13:1,2008-09-02T22:00:00Z,26.5255,-82.0032,2.441,4.24,1111122 
SCCF RECON,ioos:station:SCCF:13:1,2008-09-02T23:00:00Z,26.5255,-82.0032,2.378,4.43,1111122 
SCCF RECON,ioos:station:SCCF:13:1,2008-09-03T00:00:00Z,26.5255,-82.0032,2.3,4.4,1111122 
SCCF RECON,ioos:station:SCCF:13:1,2008-09-03T01:00:00Z,26.5255,-82.0032,2.237,4.7,1111122 
SCCF RECON,ioos:station:SCCF:13:1,2008-09-03T02:00:00Z,26.5255,-82.0032,2.2,5.03,1111122 
SCCF RECON,ioos:station:SCCF:13:1,2008-09-03T03:00:00Z,26.5255,-82.0032,2.21,5.07,1111122 
SCCF RECON,ioos:station:SCCF:13:1,2008-09-03T04:00:00Z,26.5255,-82.0032,2.33,4.8,1111122 
SCCF RECON,ioos:station:SCCF:13:1,2008-09-03T05:00:00Z,26.5255,-82.0032,2.467,3.9,1111122 
SCCF RECON,ioos:station:SCCF:13:1,2008-09-03T06:00:00Z,26.5255,-82.0032,2.52,4.16,1111122 
SCCF RECON,ioos:station:SCCF:13:1,2008-09-03T07:00:00Z,26.5255,-82.0032,2.58,4.22,1111122 
SCCF RECON,ioos:station:SCCF:13:1,2008-09-03T08:00:00Z,26.5255,-82.0032,2.61,4.28,1111122 
SCCF RECON,ioos:station:SCCF:13:1,2008-09-03T09:00:00Z,26.5255,-82.0032,2.58,4.24,1111122 
SCCF RECON,ioos:station:SCCF:13:1,2008-09-03T10:00:00Z,26.5255,-82.0032,2.52,4.19,1111122 
SCCF RECON,ioos:station:SCCF:13:1,2008-09-03T11:00:00Z,26.5255,-82.0032,2.41,4.03,1111122 
SCCF RECON,ioos:station:SCCF:13:1,2008-09-03T12:00:00Z,26.5255,-82.0032,2.29,4.18,1111122 
SCCF RECON,ioos:station:SCCF:13:1,2008-09-03T13:00:00Z,26.5255,-82.0032,2.21,4.84,1111122 
SCCF RECON,ioos:station:SCCF:13:1,2008-09-03T14:00:00Z,26.5255,-82.0032,2.14,4.92,1111122 
SCCF RECON,ioos:station:SCCF:13:1,2008-09-03T15:00:00Z,26.5255,-82.0032,2.1,4.84,1111122 
SCCF RECON,ioos:station:SCCF:13:1,2008-09-03T16:00:00Z,26.5255,-82.0032,2.161,4.78,1111122 
SCCF RECON,ioos:station:SCCF:13:1,2008-09-03T17:00:00Z,26.5255,-82.0032,2.29,4.8,1111122 
SCCF RECON,ioos:station:SCCF:13:1,2008-09-03T18:00:00Z,26.5255,-82.0032,2.38,4.21,1111122 
SCCF RECON,ioos:station:SCCF:13:1,2008-09-03T19:00:00Z,26.5255,-82.0032,2.43,3.77,1111122 
SCCF RECON,ioos:station:SCCF:13:1,2008-09-03T20:00:00Z,26.5255,-82.0032,2.47,4.3,1111122 
SCCF RECON,ioos:station:SCCF:13:1,2008-09-03T21:00:00Z,26.5255,-82.0032,2.49,4.7,1111122 
SCCF RECON,ioos:station:SCCF:13:1,2008-09-03T22:00:00Z,26.5255,-82.0032,2.51,4.93,1111122 
SCCF RECON,ioos:station:SCCF:13:1,2008-09-03T23:00:00Z,26.5255,-82.0032,2.489,4.71,1111122 
SCCF RECON,ioos:station:SCCF:13:1,2008-09-04T00:00:00Z,26.5255,-82.0032,2.43,4.58,1111122 
SCCF RECON,ioos:station:SCCF:13:1,2008-09-04T01:00:00Z,26.5255,-82.0032,2.344,4.6,1111122 
SCCF RECON,ioos:station:SCCF:13:1,2008-09-04T02:00:00Z,26.5255,-82.0032,2.29,4.22,1111122 
SCCF RECON,ioos:station:SCCF:13:1,2008-09-04T03:00:00Z,26.5255,-82.0032,2.31,4.53,1111122 
SCCF RECON,ioos:station:SCCF:13:1,2008-09-04T04:00:00Z,26.5255,-82.0032,2.383,3.38,1111122 
SCCF RECON,ioos:station:SCCF:13:1,2008-09-04T05:00:00Z,26.5255,-82.0032,2.51,4.04,1111122 
SCCF RECON,ioos:station:SCCF:13:1,2008-09-04T06:00:00Z,26.5255,-82.0032,2.58,4.27,1111122 
SCCF RECON,ioos:station:SCCF:13:1,2008-09-04T07:00:00Z,26.5255,-82.0032,2.62,4.32,1111122 
SCCF RECON,ioos:station:SCCF:13:1,2008-09-04T08:00:00Z,26.5255,-82.0032,2.658,4.21,1111122 
SCCF RECON,ioos:station:SCCF:13:1,2008-09-04T09:00:00Z,26.5255,-82.0032,2.65,4.36,1111122 
SCCF RECON,ioos:station:SCCF:13:1,2008-09-04T10:00:00Z,26.5255,-82.0032,2.62,4.03,1111122 
SCCF RECON,ioos:station:SCCF:13:1,2008-09-04T11:00:00Z,26.5255,-82.0032,2.52,4.04,1111122 
SCCF RECON,ioos:station:SCCF:13:1,2008-09-04T12:00:00Z,26.5255,-82.0032,2.4,4.05,1111122 
SCCF RECON,ioos:station:SCCF:13:1,2008-09-04T13:00:00Z,26.5255,-82.0032,2.311,4.52,1111122 
SCCF RECON,ioos:station:SCCF:13:1,2008-09-04T14:00:00Z,26.5255,-82.0032,2.24,4.69,1111122 
SCCF RECON,ioos:station:SCCF:13:1,2008-09-04T15:00:00Z,26.5255,-82.0032,2.18,4.63,1111122 
SCCF RECON,ioos:station:SCCF:13:1,2008-09-04T16:00:00Z,26.5255,-82.0032,2.16,4.52,1111122 
SCCF RECON,ioos:station:SCCF:13:1,2008-09-04T17:00:00Z,26.5255,-82.0032,2.212,4.61,1111122 
SCCF RECON,ioos:station:SCCF:13:1,2008-09-04T18:00:00Z,26.5255,-82.0032,2.32,4.36,1111122 
SCCF RECON,ioos:station:SCCF:13:1,2008-09-04T19:00:00Z,26.5255,-82.0032,2.37,4.03,1111122 
SCCF RECON,ioos:station:SCCF:13:1,2008-09-04T20:00:00Z,26.5255,-82.0032,2.41,3.96,1111122 
SCCF RECON,ioos:station:SCCF:13:1,2008-09-04T21:00:00Z,26.5255,-82.0032,2.437,3.65,1111122 
SCCF RECON,ioos:station:SCCF:13:1,2008-09-04T22:00:00Z,26.5255,-82.0032,2.43,3.75,1111122 
SCCF RECON,ioos:station:SCCF:13:1,2008-09-04T23:00:00Z,26.5255,-82.0032,2.403,4.17,1111122 
SCCF RECON,ioos:station:SCCF:13:1,2008-09-05T00:00:00Z,26.5255,-82.0032,2.37,4.19,1111122 
SCCF RECON,ioos:station:SCCF:13:1,2008-09-05T01:00:00Z,26.5255,-82.0032,2.31,3.71,1111122 
SCCF RECON,ioos:station:SCCF:13:1,2008-09-05T02:00:00Z,26.5255,-82.0032,2.26,3.99,1111122 
SCCF RECON,ioos:station:SCCF:13:1,2008-09-05T03:00:00Z,26.5255,-82.0032,2.229,4.65,1111122 
SCCF RECON,ioos:station:SCCF:13:1,2008-09-05T04:00:00Z,26.5255,-82.0032,2.26,4.55,1111122 
SCCF RECON,ioos:station:SCCF:13:1,2008-09-05T05:00:00Z,26.5255,-82.0032,2.34,3.78,1111122 
SCCF RECON,ioos:station:SCCF:13:1,2008-09-05T06:00:00Z,26.5255,-82.0032,2.42,3.85,1111122 
SCCF RECON,ioos:station:SCCF:13:1,2008-09-05T07:00:00Z,26.5255,-82.0032,2.51,4.52,1111122 
SCCF RECON,ioos:station:SCCF:13:1,2008-09-05T08:00:00Z,26.5255,-82.0032,2.58,4.54,1111122 
SCCF RECON,ioos:station:SCCF:13:1,2008-09-05T09:00:00Z,26.5255,-82.0032,2.6,4.67,1111122 
SCCF RECON,ioos:station:SCCF:13:1,2008-09-05T10:00:00Z,26.5255,-82.0032,2.59,4.65,1111122 
SCCF RECON,ioos:station:SCCF:13:1,2008-09-05T11:00:00Z,26.5255,-82.0032,2.56,4.15,1111122 
SCCF RECON,ioos:station:SCCF:13:1,2008-09-05T12:00:00Z,26.5255,-82.0032,2.49,4.33,1111122 
SCCF RECON,ioos:station:SCCF:13:1,2008-09-05T13:00:00Z,26.5255,-82.0032,2.39,4.13,1111122 
SCCF RECON,ioos:station:SCCF:13:1,2008-09-05T14:00:00Z,26.5255,-82.0032,2.334,4.43,1111122 
SCCF RECON,ioos:station:SCCF:13:1,2008-09-05T15:00:00Z,26.5255,-82.0032,2.275,4.61,1111122 
SCCF RECON,ioos:station:SCCF:13:1,2008-09-05T16:00:00Z,26.5255,-82.0032,2.24,4.87,1111122 
SCCF RECON,ioos:station:SCCF:13:1,2008-09-05T17:00:00Z,26.5255,-82.0032,2.24,5.11,1111122 
SCCF RECON,ioos:station:SCCF:13:1,2008-09-05T18:00:00Z,26.5255,-82.0032,2.31,4.8,1111122 
SCCF RECON,ioos:station:SCCF:13:1,2008-09-05T19:00:00Z,26.5255,-82.0032,2.388,4.15,1111122 
SCCF RECON,ioos:station:SCCF:13:1,2008-09-05T20:00:00Z,26.5255,-82.0032,2.42,4.05,1111122 
SCCF RECON,ioos:station:SCCF:13:1,2008-09-05T21:00:00Z,26.5255,-82.0032,2.46,4.31,1111122 
SCCF RECON,ioos:station:SCCF:13:1,2008-09-05T22:00:00Z,26.5255,-82.0032,2.49,4.85,1111122 
SCCF RECON,ioos:station:SCCF:13:1,2008-09-05T23:00:00Z,26.5255,-82.0032,2.508,3.85,1111122 
SCCF RECON,ioos:station:SCCF:13:1,2008-09-06T00:00:00Z,26.5255,-82.0032,2.48,3.77,1111122 
SCCF RECON,ioos:station:SCCF:13:1,2008-09-06T01:00:00Z,26.5255,-82.0032,2.45,4.84,1111122 
SCCF RECON,ioos:station:SCCF:13:1,2008-09-06T02:00:00Z,26.5255,-82.0032,2.44,4.31,1111122 
SCCF RECON,ioos:station:SCCF:13:1,2008-09-06T03:00:00Z,26.5255,-82.0032,2.45,4.31,1111122 
SCCF RECON,ioos:station:SCCF:13:1,2008-09-06T04:00:00Z,26.5255,-82.0032,2.48,4.15,1111122 
SCCF RECON,ioos:station:SCCF:13:1,2008-09-06T05:00:00Z,26.5255,-82.0032,2.52,3.23,1111122 
SCCF RECON,ioos:station:SCCF:13:1,2008-09-06T06:00:00Z,26.5255,-82.0032,2.57,3.83,1111122 
SCCF RECON,ioos:station:SCCF:13:1,2008-09-06T07:00:00Z,26.5255,-82.0032,2.634,3.77,1111122 
SCCF RECON,ioos:station:SCCF:13:1,2008-09-06T08:00:00Z,26.5255,-82.0032,2.68,4.36,1111122 
SCCF RECON,ioos:station:SCCF:13:1,2008-09-06T09:00:00Z,26.5255,-82.0032,2.72,4.03,1111122 
SCCF RECON,ioos:station:SCCF:13:1,2008-09-06T10:00:00Z,26.5255,-82.0032,2.73,4.17,1111122 
SCCF RECON,ioos:station:SCCF:13:1,2008-09-06T11:00:00Z,26.5255,-82.0032,2.69,3.59,1111122 
SCCF RECON,ioos:station:SCCF:13:1,2008-09-06T12:00:00Z,26.5255,-82.0032,2.62,4.01,1111122 
SCCF RECON,ioos:station:SCCF:13:1,2008-09-06T13:00:00Z,26.5255,-82.0032,2.52,3.8,1111122 
SCCF RECON,ioos:station:SCCF:13:1,2008-09-06T14:00:00Z,26.5255,-82.0032,2.443,4.42,1111122 
SCCF RECON,ioos:station:SCCF:13:1,2008-09-06T15:00:00Z,26.5255,-82.0032,2.368,4.69,1111122 
SCCF RECON,ioos:station:SCCF:13:1,2008-09-06T16:00:00Z,26.5255,-82.0032,2.289,4.81,1111122 
SCCF RECON,ioos:station:SCCF:13:1,2008-09-06T17:00:00Z,26.5255,-82.0032,2.25,4.69,1111122 
SCCF RECON,ioos:station:SCCF:13:1,2008-09-06T18:00:00Z,26.5255,-82.0032,2.264,4.65,1111122 
SCCF RECON,ioos:station:SCCF:13:1,2008-09-06T19:00:00Z,26.5255,-82.0032,2.31,4.76,1111122 
SCCF RECON,ioos:station:SCCF:13:1,2008-09-06T20:00:00Z,26.5255,-82.0032,2.352,4.71,1111122 
SCCF RECON,ioos:station:SCCF:13:1,2008-09-06T21:00:00Z,26.5255,-82.0032,2.41,4.56,1111122 
SCCF RECON,ioos:station:SCCF:13:1,2008-09-06T22:00:00Z,26.5255,-82.0032,2.44,3.65,1111122 
SCCF RECON,ioos:station:SCCF:13:1,2008-09-06T23:00:00Z,26.5255,-82.0032,2.48,3.36,1111122 
SCCF RECON,ioos:station:SCCF:13:1,2008-09-07T00:00:00Z,26.5255,-82.0032,2.5,3.27,1111122 
SCCF RECON,ioos:station:SCCF:13:1,2008-09-07T01:00:00Z,26.5255,-82.0032,2.52,3.79,1111122 
SCCF RECON,ioos:station:SCCF:13:1,2008-09-07T02:00:00Z,26.5255,-82.0032,2.52,3.88,1111122 
SCCF RECON,ioos:station:SCCF:13:1,2008-09-07T03:00:00Z,26.5255,-82.0032,2.48,3.77,1111122 
SCCF RECON,ioos:station:SCCF:13:1,2008-09-07T04:00:00Z,26.5255,-82.0032,2.49,3.57,1111122 
SCCF RECON,ioos:station:SCCF:13:1,2008-09-07T05:00:00Z,26.5255,-82.0032,2.5,2.72,1111122 
SCCF RECON,ioos:station:SCCF:13:1,2008-09-07T06:00:00Z,26.5255,-82.0032,2.54,3.68,1111122 
SCCF RECON,ioos:station:SCCF:13:1,2008-09-07T07:00:00Z,26.5255,-82.0032,2.59,4.08,1111122 
SCCF RECON,ioos:station:SCCF:13:1,2008-09-07T08:00:00Z,26.5255,-82.0032,2.62,3.79,1111122 
SCCF RECON,ioos:station:SCCF:13:1,2008-09-07T09:00:00Z,26.5255,-82.0032,2.66,3.64,1111122 
SCCF RECON,ioos:station:SCCF:13:1,2008-09-07T10:00:00Z,26.5255,-82.0032,2.67,2.98,1111122 
SCCF RECON,ioos:station:SCCF:13:1,2008-09-07T11:00:00Z,26.5255,-82.0032,2.642,2.89,1111122 
SCCF RECON,ioos:station:SCCF:13:1,2008-09-07T12:00:00Z,26.5255,-82.0032,2.59,2.89,1111122 
SCCF RECON,ioos:station:SCCF:13:1,2008-09-07T13:00:00Z,26.5255,-82.0032,2.5,3.4,1111122 
SCCF RECON,ioos:station:SCCF:13:1,2008-09-07T14:00:00Z,26.5255,-82.0032,2.4,4.13,1111122 
SCCF RECON,ioos:station:SCCF:13:1,2008-09-07T15:00:00Z,26.5255,-82.0032,2.32,4.58,1111122 
SCCF RECON,ioos:station:SCCF:13:1,2008-09-07T16:00:00Z,26.5255,-82.0032,2.26,4.85,1111122 
SCCF RECON,ioos:station:SCCF:13:1,2008-09-07T17:00:00Z,26.5255,-82.0032,2.202,4.76,1111122 
SCCF RECON,ioos:station:SCCF:13:1,2008-09-07T18:00:00Z,26.5255,-82.0032,2.15,4.66,1111122 
SCCF RECON,ioos:station:SCCF:13:1,2008-09-07T19:00:00Z,26.5255,-82.0032,2.12,4.59,1111122 
SCCF RECON,ioos:station:SCCF:13:1,2008-09-07T20:00:00Z,26.5255,-82.0032,2.181,4.57,1111122 
SCCF RECON,ioos:station:SCCF:13:1,2008-09-07T21:00:00Z,26.5255,-82.0032,2.25,4.69,1111122 
SCCF RECON,ioos:station:SCCF:13:1,2008-09-07T22:00:00Z,26.5255,-82.0032,2.289,4.59,1111122 
SCCF RECON,ioos:station:SCCF:13:1,2008-09-07T23:00:00Z,26.5255,-82.0032,2.33,3.02,1111122 
SCCF RECON,ioos:station:SCCF:13:1,2008-09-08T00:00:00Z,26.5255,-82.0032,2.39,3.37,1111122 
SCCF RECON,ioos:station:SCCF:13:1,2008-09-08T01:00:00Z,26.5255,-82.0032,2.447,3.48,1111122 
SCCF RECON,ioos:station:SCCF:13:1,2008-09-08T02:00:00Z,26.5255,-82.0032,2.48,4.59,1111122 
SCCF RECON,ioos:station:SCCF:13:1,2008-09-08T03:00:00Z,26.5255,-82.0032,2.48,4.49,1111122 
SCCF RECON,ioos:station:SCCF:13:1,2008-09-08T04:00:00Z,26.5255,-82.0032,2.48,4.37,1111122 
SCCF RECON,ioos:station:SCCF:13:1,2008-09-08T05:00:00Z,26.5255,-82.0032,2.48,4.3,1111122 
SCCF RECON,ioos:station:SCCF:13:1,2008-09-08T06:00:00Z,26.5255,-82.0032,2.44,4.01,1111122 
SCCF RECON,ioos:station:SCCF:13:1,2008-09-08T07:00:00Z,26.5255,-82.0032,2.42,3.25,1111122 
SCCF RECON,ioos:station:SCCF:13:1,2008-09-08T08:00:00Z,26.5255,-82.0032,2.47,3.38,1111122 
SCCF RECON,ioos:station:SCCF:13:1,2008-09-08T09:00:00Z,26.5255,-82.0032,2.5,3.61,1111122 
SCCF RECON,ioos:station:SCCF:13:1,2008-09-08T10:00:00Z,26.5255,-82.0032,2.54,3.6,1111122 
SCCF RECON,ioos:station:SCCF:13:1,2008-09-08T11:00:00Z,26.5255,-82.0032,2.554,3.47,1111122 
SCCF RECON,ioos:station:SCCF:13:1,2008-09-08T12:00:00Z,26.5255,-82.0032,2.558,3.2,1111122 
SCCF RECON,ioos:station:SCCF:13:1,2008-09-08T13:00:00Z,26.5255,-82.0032,2.54,3.04,1111122 
SCCF RECON,ioos:station:SCCF:13:1,2008-09-08T14:00:00Z,26.5255,-82.0032,2.48,2.99,1111122 
SCCF RECON,ioos:station:SCCF:13:1,2008-09-08T15:00:00Z,26.5255,-82.0032,2.379,3.15,1111122 
SCCF RECON,ioos:station:SCCF:13:1,2008-09-08T16:00:00Z,26.5255,-82.0032,2.27,4.61,1111122 
SCCF RECON,ioos:station:SCCF:13:1,2008-09-08T17:00:00Z,26.5255,-82.0032,2.197,5.32,1111122 
SCCF RECON,ioos:station:SCCF:13:1,2008-09-08T18:00:00Z,26.5255,-82.0032,2.14,5.44,1111122 
SCCF RECON,ioos:station:SCCF:13:1,2008-09-08T19:00:00Z,26.5255,-82.0032,2.119,5.21,1111122 
SCCF RECON,ioos:station:SCCF:13:1,2008-09-08T20:00:00Z,26.5255,-82.0032,2.111,5.11,1111122 
SCCF RECON,ioos:station:SCCF:13:1,2008-09-08T21:00:00Z,26.5255,-82.0032,2.13,5.13,1111122 
SCCF RECON,ioos:station:SCCF:13:1,2008-09-08T22:00:00Z,26.5255,-82.0032,2.167,5.18,1111122 
SCCF RECON,ioos:station:SCCF:13:1,2008-09-08T23:00:00Z,26.5255,-82.0032,2.242,5.09,1111122 
SCCF RECON,ioos:station:SCCF:13:1,2008-09-09T00:00:00Z,26.5255,-82.0032,2.34,3.66,1111122 
SCCF RECON,ioos:station:SCCF:13:1,2008-09-09T01:00:00Z,26.5255,-82.0032,2.323,3.86,1111122 
SCCF RECON,ioos:station:SCCF:13:1,2008-09-09T02:00:00Z,26.5255,-82.0032,2.28,3.84,1111122 
SCCF RECON,ioos:station:SCCF:13:1,2008-09-09T03:00:00Z,26.5255,-82.0032,2.3,4.44,1111122 
SCCF RECON,ioos:station:SCCF:13:1,2008-09-09T04:00:00Z,26.5255,-82.0032,2.346,4.73,1111122 
SCCF RECON,ioos:station:SCCF:13:1,2008-09-09T05:00:00Z,26.5255,-82.0032,2.39,4.59,1111122 
SCCF RECON,ioos:station:SCCF:13:1,2008-09-09T06:00:00Z,26.5255,-82.0032,2.37,4.99,1111122 
SCCF RECON,ioos:station:SCCF:13:1,2008-09-09T07:00:00Z,26.5255,-82.0032,2.32,4.76,1111122 
SCCF RECON,ioos:station:SCCF:13:1,2008-09-09T08:00:00Z,26.5255,-82.0032,2.29,4.52,1111122 
SCCF RECON,ioos:station:SCCF:13:1,2008-09-09T09:00:00Z,26.5255,-82.0032,2.428,4.87,1111122 
SCCF RECON,ioos:station:SCCF:13:1,2008-09-09T10:00:00Z,26.5255,-82.0032,2.39,4.75,1111122 
SCCF RECON,ioos:station:SCCF:13:1,2008-09-09T11:00:00Z,26.5255,-82.0032,2.36,4.57,1111122 
SCCF RECON,ioos:station:SCCF:13:1,2008-09-09T12:00:00Z,26.5255,-82.0032,2.387,4.4,1111122 
SCCF RECON,ioos:station:SCCF:13:1,2008-09-09T13:00:00Z,26.5255,-82.0032,2.409,4.48,1111122 
SCCF RECON,ioos:station:SCCF:13:1,2008-09-09T14:00:00Z,26.5255,-82.0032,2.46,4.29,1111122 
SCCF RECON,ioos:station:SCCF:13:1,2008-09-09T15:00:00Z,26.5255,-82.0032,2.41,3.53,1111122 
SCCF RECON,ioos:station:SCCF:13:1,2008-09-09T16:00:00Z,26.5255,-82.0032,2.301,3.83,1111122 
SCCF RECON,ioos:station:SCCF:13:1,2008-09-09T17:00:00Z,26.5255,-82.0032,2.22,4.09,1111122 
SCCF RECON,ioos:station:SCCF:13:1,2008-09-09T18:00:00Z,26.5255,-82.0032,2.16,4.58,1111122 
SCCF RECON,ioos:station:SCCF:13:1,2008-09-09T19:00:00Z,26.5255,-82.0032,2.01,5.89,1111122 
SCCF RECON,ioos:station:SCCF:13:1,2008-09-09T20:00:00Z,26.5255,-82.0032,2.019,6.06,1111122 
SCCF RECON,ioos:station:SCCF:13:1,2008-09-09T21:00:00Z,26.5255,-82.0032,2.13,5.98,1111122 
SCCF RECON,ioos:station:SCCF:13:1,2008-09-09T22:00:00Z,26.5255,-82.0032,2.16,5.73,1111122 
SCCF RECON,ioos:station:SCCF:13:1,2008-09-09T23:00:00Z,26.5255,-82.0032,2.119,5.92,1111122 
SCCF RECON,ioos:station:SCCF:13:1,2008-09-10T00:00:00Z,26.5255,-82.0032,2.2,4.09,1111122 
SCCF RECON,ioos:station:SCCF:13:1,2008-09-10T01:00:00Z,26.5255,-82.0032,2.272,4.45,1111122 
SCCF RECON,ioos:station:SCCF:13:1,2008-09-10T02:00:00Z,26.5255,-82.0032,2.366,4.25,1111122 
SCCF RECON,ioos:station:SCCF:13:1,2008-09-10T03:00:00Z,26.5255,-82.0032,2.45,5.26,1111122 
SCCF RECON,ioos:station:SCCF:13:1,2008-09-10T04:00:00Z,26.5255,-82.0032,2.487,5.34,1111122 
SCCF RECON,ioos:station:SCCF:13:1,2008-09-10T05:00:00Z,26.5255,-82.0032,2.53,5.2,1111122 
SCCF RECON,ioos:station:SCCF:13:1,2008-09-10T06:00:00Z,26.5255,-82.0032,2.56,5.08,1111122 
SCCF RECON,ioos:station:SCCF:13:1,2008-09-10T07:00:00Z,26.5255,-82.0032,2.58,4.99,1111122 
SCCF RECON,ioos:station:SCCF:13:1,2008-09-10T08:00:00Z,26.5255,-82.0032,2.58,4.8,1111122 
SCCF RECON,ioos:station:SCCF:13:1,2008-09-10T09:00:00Z,26.5255,-82.0032,2.653,4.87,1111122 
SCCF RECON,ioos:station:SCCF:13:1,2008-09-10T10:00:00Z,26.5255,-82.0032,2.719,4.72,1111122 
SCCF RECON,ioos:station:SCCF:13:1,2008-09-10T11:00:00Z,26.5255,-82.0032,2.792,4.74,1111122 
SCCF RECON,ioos:station:SCCF:13:1,2008-09-10T12:00:00Z,26.5255,-82.0032,2.877,4.86,1111122 
SCCF RECON,ioos:station:SCCF:13:1,2008-09-10T13:00:00Z,26.5255,-82.0032,2.937,4.76,1111122 
SCCF RECON,ioos:station:SCCF:13:1,2008-09-10T14:00:00Z,26.5255,-82.0032,3.01,4.73,1111122 
SCCF RECON,ioos:station:SCCF:13:1,2008-09-10T15:00:00Z,26.5255,-82.0032,3.02,4.76,1111122 
SCCF RECON,ioos:station:SCCF:13:1,2008-09-10T16:00:00Z,26.5255,-82.0032,3.01,4.78,1111122 
SCCF RECON,ioos:station:SCCF:13:1,2008-09-10T17:00:00Z,26.5255,-82.0032,2.911,4.63,1111122 
SCCF RECON,ioos:station:SCCF:13:1,2008-09-10T18:00:00Z,26.5255,-82.0032,2.789,4.61,1111122 
SCCF RECON,ioos:station:SCCF:13:1,2008-09-10T19:00:00Z,26.5255,-82.0032,2.709,4.7,1111122 
SCCF RECON,ioos:station:SCCF:13:1,2008-09-10T20:00:00Z,26.5255,-82.0032,2.641,5.21,1111122 
SCCF RECON,ioos:station:SCCF:13:1,2008-09-10T21:00:00Z,26.5255,-82.0032,2.574,5.32,1111122 
SCCF RECON,ioos:station:SCCF:13:1,2008-09-10T22:00:00Z,26.5255,-82.0032,2.57,5.41,1111122 
SCCF RECON,ioos:station:SCCF:13:1,2008-09-10T23:00:00Z,26.5255,-82.0032,2.616,5.16,1111122 
SCCF RECON,ioos:station:SCCF:13:1,2008-09-11T00:00:00Z,26.5255,-82.0032,2.64,4.71,1111122 
SCCF RECON,ioos:station:SCCF:13:1,2008-09-11T01:00:00Z,26.5255,-82.0032,2.651,4.05,1111122 
SCCF RECON,ioos:station:SCCF:13:1,2008-09-11T02:00:00Z,26.5255,-82.0032,2.7,4.44,1111122 
SCCF RECON,ioos:station:SCCF:13:1,2008-09-11T03:00:00Z,26.5255,-82.0032,2.76,4.46,1111122 
SCCF RECON,ioos:station:SCCF:13:1,2008-09-11T04:00:00Z,26.5255,-82.0032,2.809,4.19,1111122 
SCCF RECON,ioos:station:SCCF:13:1,2008-09-11T05:00:00Z,26.5255,-82.0032,2.833,4.6,1111122 
SCCF RECON,ioos:station:SCCF:13:1,2008-09-11T06:00:00Z,26.5255,-82.0032,2.8,4.79,1111122 
SCCF RECON,ioos:station:SCCF:13:1,2008-09-11T07:00:00Z,26.5255,-82.0032,2.76,4.66,1111122 
SCCF RECON,ioos:station:SCCF:13:1,2008-09-11T08:00:00Z,26.5255,-82.0032,2.71,4.37,1111122 
SCCF RECON,ioos:station:SCCF:13:1,2008-09-11T09:00:00Z,26.5255,-82.0032,2.651,4.52,1111122 
SCCF RECON,ioos:station:SCCF:13:1,2008-09-11T10:00:00Z,26.5255,-82.0032,2.7,4.0,1111122 
SCCF RECON,ioos:station:SCCF:13:1,2008-09-11T11:00:00Z,26.5255,-82.0032,2.79,4.22,1111122 
SCCF RECON,ioos:station:SCCF:13:1,2008-09-11T12:00:00Z,26.5255,-82.0032,2.83,4.43,1111122 
SCCF RECON,ioos:station:SCCF:13:1,2008-09-11T13:00:00Z,26.5255,-82.0032,2.87,4.39,1111122 
SCCF RECON,ioos:station:SCCF:13:1,2008-09-11T14:00:00Z,26.5255,-82.0032,2.904,4.52,1111122 
SCCF RECON,ioos:station:SCCF:13:1,2008-09-11T15:00:00Z,26.5255,-82.0032,2.916,4.64,1111122 
SCCF RECON,ioos:station:SCCF:13:1,2008-09-11T16:00:00Z,26.5255,-82.0032,2.91,4.42,1111122 
SCCF RECON,ioos:station:SCCF:13:1,2008-09-11T17:00:00Z,26.5255,-82.0032,2.839,4.56,1111122 
SCCF RECON,ioos:station:SCCF:13:1,2008-09-11T18:00:00Z,26.5255,-82.0032,2.71,4.34,1111122 
SCCF RECON,ioos:station:SCCF:13:1,2008-09-11T19:00:00Z,26.5255,-82.0032,2.577,4.48,1111122 
SCCF RECON,ioos:station:SCCF:13:1,2008-09-11T20:00:00Z,26.5255,-82.0032,2.458,5.56,1111122 
SCCF RECON,ioos:station:SCCF:13:1,2008-09-11T21:00:00Z,26.5255,-82.0032,2.37,5.69,1111122 